Weather History for McCall, ID

Change the Weather History Date:

Wednesday, August 28, 2013

  Actual Average Record
Temperature  
Mean Temperature 68 °F 57 °F  
Max Temperature 80 °F 75 °F 91 °F (1986)
Min Temperature 55 °F 39 °F 26 °F (1989)
Degree Days  
Heating Degree Days 0 8  
Month to date heating degree days 28 152  
Since 1 June heating degree days 308 669  
Since 1 July heating degree days 45 302  
Cooling Degree Days 3 0  
Month to date cooling degree days 55 7  
Year to date cooling degree days 178 23  
Since 1 June cooling degree days 178 23  
Growing Degree Days 18 (Base 50)    
Moisture  
Dew Point 49 °F    
Average Humidity 51    
Maximum Humidity 78    
Minimum Humidity 23    
Precipitation  
Precipitation 0.18 in 0.02 in 0.42 in (2002)
Month to date precipitation 0.32 0.60  
Year to date precipitation 11.57 12.96  
Sea Level Pressure  
Sea Level Pressure 29.96 in    
Wind  
Wind Speed 5 mph (NE)    
Max Wind Speed 15 mph    
Max Gust Speed 18 mph    
Visibility 9 miles    
Events Rain , Thunderstorm    
T = Trace of Precipitation, MM = Missing Value Source: NWS Daily Summary

Daily Weather History Graph

Daily Weather History Graph

Search for Another Location

Airport:

Trip Planner

Search our weather history database for the weather conditions in past years. The results will help you decide how hot, cold, wet, or windy it might be!

Date:

Astronomy

Aug. 28, 2013 Rise Set
Actual Time 7:02 AM MDT 8:27 PM MDT
Civil Twilight 6:31 AM MDT 8:58 PM MDT
Nautical Twilight 5:54 AM MDT 9:35 PM MDT
Astronomical Twilight 5:15 AM MDT 10:14 PM MDT
Moon 12:06 AM MDT (8/28) 3:16 PM MDT (8/28)
Length of Visible Light 14h 26m
Length of Day
13h 25m
Waning Gibbous, 47% of the Moon is Illuminated
Aug 28
Waning Gibbous
Sep 5
New
Sep 12
First Quarter
Sep 19
Full
Sep 26
Last Quarter

Hourly Weather History & Observations

Time (MDT) Temp. Dew Point Humidity Pressure Visibility Wind Dir Wind Speed Gust Speed Precip Events Conditions
12:06 AM 66.2 °F 46.4 °F 49% 30.01 in 9.0 mi SW 17.3 mph 24.2 mph 0.00 in Rain , Thunderstorm Rain
12:51 AM 66.0 °F 46.0 °F 48% 29.83 in 10.0 mi NE 6.9 mph - 0.01 in   Scattered Clouds
12:59 AM 66.2 °F 46.4 °F 49% 30.00 in 10.0 mi Calm Calm - N/A Thunderstorm Mostly Cloudy
1:24 AM 66.2 °F 46.4 °F 49% 29.97 in 10.0 mi NNE 9.2 mph - 0.00 in Rain Light Rain
1:51 AM 62.1 °F 50.0 °F 65% 29.83 in 10.0 mi Variable 3.5 mph - 0.00 in   Mostly Cloudy
2:51 AM 60.1 °F 50.0 °F 69% 29.81 in 10.0 mi Calm Calm - 0.00 in   Mostly Cloudy
3:05 AM 57.2 °F 51.8 °F 82% 29.99 in 10.0 mi SW 10.4 mph - N/A Thunderstorm Scattered Clouds
3:34 AM 62.6 °F 48.2 °F 59% 29.96 in 10.0 mi North 11.5 mph - 0.00 in Rain , Thunderstorm Light Thunderstorms and Rain
3:51 AM 62.1 °F 48.9 °F 62% 29.82 in 10.0 mi Calm Calm - 0.00 in Thunderstorm Mostly Cloudy
4:01 AM 60.8 °F 51.8 °F 72% 29.97 in 10.0 mi WNW 4.6 mph - N/A   Mostly Cloudy
4:32 AM 62.6 °F 48.2 °F 59% 29.96 in 10.0 mi North 6.9 mph - N/A Thunderstorm Scattered Clouds
4:51 AM 59.0 °F 51.1 °F 75% 29.83 in 10.0 mi WSW 16.1 mph - N/A Thunderstorm Mostly Cloudy
5:11 AM 57.2 °F 51.8 °F 82% 29.99 in 2.0 mi Calm Calm - 0.09 in Rain Heavy Rain
5:18 AM 57.2 °F 53.6 °F 88% 30.00 in 4.0 mi North 9.2 mph - 0.13 in Rain , Thunderstorm Light Rain
5:38 AM 57.2 °F 53.6 °F 88% 30.00 in 10.0 mi ENE 8.1 mph - 0.13 in   Overcast
5:51 AM 57.9 °F 53.1 °F 84% 29.85 in 10.0 mi NNW 4.6 mph - 0.13 in Rain Light Rain
6:05 AM 57.2 °F 53.6 °F 88% 30.01 in 7.0 mi NNE 6.9 mph - 0.04 in Rain , Thunderstorm Thunderstorms and Rain
6:38 AM - - N/A% 30.05 in - North - - 0.05 in   Unknown
6:51 AM - - N/A% 30.04 in - North - - 0.05 in   Unknown
7:51 AM - - N/A% 30.04 in - North - - N/A   Unknown
8:51 AM - - N/A% 30.06 in - North - - N/A   Unknown
9:51 AM 62.1 °F 55.9 °F 80% 29.95 in 10.0 mi Calm Calm - N/A   Overcast
10:51 AM 63.0 °F 53.1 °F 70% 29.97 in 10.0 mi Calm Calm - N/A   Overcast
11:51 AM 70.0 °F 53.1 °F 55% 29.96 in 10.0 mi Variable 6.9 mph - N/A   Scattered Clouds
12:51 PM 73.0 °F 51.1 °F 46% 29.94 in 10.0 mi SE 9.2 mph 16.1 mph N/A   Clear
1:51 PM 75.0 °F 48.0 °F 38% 29.94 in 10.0 mi SSE 9.2 mph - N/A   Scattered Clouds
2:51 PM 77.0 °F 48.0 °F 36% 29.93 in 10.0 mi Variable 5.8 mph - N/A   Clear
3:51 PM 78.1 °F 46.9 °F 33% 29.92 in 10.0 mi SSE 9.2 mph - N/A   Scattered Clouds
4:51 PM 77.0 °F 46.0 °F 33% 29.91 in 10.0 mi SSE 8.1 mph - N/A   Partly Cloudy
5:51 PM 78.1 °F 46.0 °F 32% 29.93 in 10.0 mi SSE 6.9 mph - N/A   Scattered Clouds
6:51 PM 79.0 °F 37.9 °F 23% 30.06 in 10.0 mi SSW 9.2 mph - N/A   Clear
7:51 PM 75.9 °F 42.1 °F 30% 30.05 in 10.0 mi South 3.5 mph - N/A   Clear
8:51 PM 68.0 °F 45.0 °F 43% 30.05 in 10.0 mi NE 3.5 mph - N/A   Clear
9:51 PM 66.0 °F 45.0 °F 47% 29.95 in 10.0 mi North 3.5 mph - N/A   Clear
10:51 PM 62.1 °F 46.0 °F 56% 29.97 in 10.0 mi Calm Calm - N/A   Clear
11:51 PM 59.0 °F 46.9 °F 64% 29.96 in 10.0 mi Calm Calm - N/A   Clear